ORBCOMM FM38 1 33060U 08031A 21016.43968326 -.00000033 00000-0 25685-4 0 9992 2 33060 48.4446 16.7930 0006457 346.9278 13.1466 14.73727168676513 ORBCOMM FM41 1 33061U 08031B 21016.48875743 -.00000024 00000-0 27098-4 0 9998 2 33061 48.4480 21.0635 0005691 335.2935 159.1439 14.73572380676091 ORBCOMM FM29 1 33062U 08031C 21016.48554657 -.00000040 00000-0 24780-4 0 9990 2 33062 48.4432 28.1993 0007630 335.1822 184.4918 14.73375780675977 ORBCOMM FM39 1 33063U 08031D 21016.44153235 -.00000035 00000-0 25776-4 0 9994 2 33063 48.4442 42.3394 0008732 318.7713 41.2539 14.72766272675756 ORBCOMM FM37 1 33064U 08031E 21016.49025198 -.00000044 00000-0 24271-4 0 9995 2 33064 48.4436 33.4989 0006909 332.5643 183.7623 14.73004265675979 ORBCOMM FM40 1 33065U 08031F 21016.51176648 .00000005 00000-0 31617-4 0 9994 2 33065 48.4462 29.5130 0008443 337.0950 157.2415 14.73555035675925 SL-8 R/B 1 33066U 08031G 21016.54756976 -.00000116 00000-0 13301-4 0 9990 2 33066 48.4440 104.8967 0008180 251.3961 108.6062 14.69733908675295